This is the latest recevied weather packets stored in our database for station/object SQ9NFI-4. If no packets are shown the sender has not sent any weather packets the latest 10 day(s).
| Time | Temp. | Humidity | Pressure | Rain* | Wind** | Luminosity | Snow |
|---|---|---|---|---|---|---|---|
| 1777789516 | 18.33° C | 42% | 1020 hPa | 0 mm | - | 328 W/m² | - |
| 1777789216 | 17.78° C | 42% | 1020 hPa | 0 mm | - | 314 W/m² | - |
| 1777788916 | 17.78° C | 41% | 1020 hPa | 0 mm | - | 301 W/m² | - |
| 1777788616 | 17.22° C | 42% | 1020 hPa | 0 mm | - | 282 W/m² | - |
| 1777788316 | 17.22° C | 43% | 1020 hPa | 0 mm | - | 279 W/m² | - |
| 1777788016 | 16.67° C | 43% | 1020 hPa | 0 mm | - | 271 W/m² | - |
| 1777787716 | 16.67° C | 43% | 1020 hPa | 0 mm | - | 255 W/m² | - |
| 1777787416 | 16.67° C | 47% | 1020 hPa | 0 mm | - | 240 W/m² | - |
| 1777787116 | 16.11° C | 46% | 1020 hPa | 0 mm | - | 213 W/m² | - |
| 1777786816 | 15.56° C | 57% | 1020 hPa | 0 mm | - | 186 W/m² | - |
| 1777786516 | 14.44° C | 63% | 1020 hPa | 0 mm | - | 169 W/m² | - |
| 1777786216 | 13.89° C | 63% | 1020 hPa | 0 mm | - | 149 W/m² | - |
| 1777785916 | 14.44° C | 64% | 1020 hPa | 0 mm | - | 135 W/m² | - |
| 1777785616 | 13.89° C | 69% | 1020 hPa | 0 mm | - | 122 W/m² | - |
| 1777785316 | 12.78° C | 63% | 1020 hPa | 0 mm | - | 109 W/m² | - |
| 1777785016 | 12.22° C | 67% | 1020 hPa | 0 mm | - | 99 W/m² | - |
| 1777784716 | 11.11° C | 70% | 1020 hPa | 0 mm | - | 89 W/m² | - |
| 1777784416 | 10.56° C | 74% | 1020 hPa | 0 mm | - | 81 W/m² | - |
| 1777784116 | 9.44° C | 76% | 1020 hPa | 0 mm | - | 74 W/m² | - |
| 1777783816 | 9.44° C | 82% | 1020 hPa | 0 mm | - | 67 W/m² | - |
| 1777783516 | 8.89° C | 79% | 1020 hPa | 0 mm | - | 60 W/m² | - |
| 1777783216 | 8.33° C | 84% | 1020 hPa | 0 mm | - | 54 W/m² | - |
| 1777782916 | 7.78° C | 86% | 1020 hPa | 0 mm | - | 50 W/m² | - |
| 1777782616 | 6.67° C | 94% | 1020 hPa | 0 mm | - | 44 W/m² | - |
| 1777782316 | 6.11° C | 97% | 1020 hPa | 0 mm | - | 41 W/m² | - |
* Rain latest hour (hover to see other rain measurements)
** Current wind speed in m/s (hover to see current wind gust speed)